This demonstration page uses our WeatherBlox Daily Observations layout. Learn more.

Left ArrowRight Arrow

40.97296, -117.73568

Hourly Observations for June 27, 2020

Temp ( °F °C ) Dew Point ( °F °C ) Humidity (%) Winds ( mph kmh ) Pressure ( in mb ) Visibility ( mi km ) Precip ( " mm )
12:56 am 00:56 Clear 61 16.1 27 -2.8 27 27 S 8 13 29.81 1010 10 16 0.00 0.00
1:56 am 01:56 Clear 58 14.4 27 -2.8 31 31 S 8 13 29.80 1009 10 16 0.00 0.00
2:56 am 02:56 Clear 53 11.7 27 -2.8 37 37 Calm 29.81 1010 10 16 0.00 0.00
3:56 am 03:56 Clear 51 10.6 31 -0.6 46 46 S 5 7 29.80 1009 10 16 0.00 0.00
4:56 am 04:56 Clear 49 9.4 29 -1.7 46 46 S 6 9 29.81 1009 10 16 0.00 0.00
5:56 am 05:56 Sunny 51 10.6 29 -1.7 43 43 SSE 5 7 29.81 1010 10 16 0.00 0.00
6:56 am 06:56 Sunny 65 18.3 29 -1.7 26 26 Calm 29.79 1009 10 16 0.00 0.00
7:56 am 07:56 Sunny 74 23.3 30 -1.1 20 20 Calm 29.78 1008 10 16 0.00 0.00
8:56 am 08:56 Sunny 83 28.3 28 -2.2 13 13 VRB 3 6 29.77 1008 10 16 0.00 0.00
9:56 am 09:56 Sunny 89 31.7 32 0 13 13 VRB 3 6 29.75 1007 10 16 0.00 0.00
10:56 am 10:56 Sunny 93 33.9 37 2.8 14 14 SW 13 20 29.73 1007 10 16 0.00 0.00
11:56 am 11:56 Sunny 96 35.6 36 2.2 12 12 SW 26 43 29.70 1006 10 16 0.00 0.00
12:56 pm 12:56 Mostly Cloudy 96 35.6 38 3.3 13 13 W 21 33 29.68 1005 10 16 0.00 0.00
1:56 pm 13:56 Partly Cloudy 97 36.1 36 2.2 12 12 W 22 35 29.65 1004 10 16 0.00 0.00
2:56 pm 14:56 Sunny 95 35 35 1.7 12 12 W 17 28 29.64 1004 10 16 0.00 0.00
3:56 pm 15:56 Sunny 93 33.9 36 2.2 13 13 WNW 22 35 29.62 1003 10 16 0.00 0.00
4:56 pm 16:56 Sunny 96 35.6 30 -1.1 10 10 W 25 41 29.59 1002 10 16 0.00 0.00
5:56 pm 17:56 Sunny 89 31.7 36 2.2 15 15 WNW 14 22 29.60 1002 8 13 0.00 0.00
6:27 pm 18:27 Mostly Cloudy with Nearby Thunderstorms 82 27.8 43 6.1 25 25 NW 16 26 29.41 996 5 8 0.00 0.00
6:56 pm 18:56 Partly Cloudy with Nearby Thunderstorms 84 28.9 41 5 22 22 WNW 8 13 29.57 1001 4 6 0.00 0.00
7:24 pm 19:24 Mostly Cloudy with Haze 84 28.9 43 6.1 24 24 SE 5 7 29.39 995 4 6 0.00 0.00
7:56 pm 19:56 Partly Cloudy 86 30 36 2.2 17 17 WNW 15 24 29.56 1001 10 16 0.00 0.00
8:56 pm 20:56 Mostly Cloudy 80 26.7 43 6.1 27 27 NNW 6 9 29.57 1002 10 16 0.00 0.00
9:56 pm 21:56 Cloudy 78 25.6 42 5.6 28 28 VRB 6 9 29.60 1002 10 16 0.00 0.00
10:56 pm 22:56 Partly Cloudy 74 23.3 37 2.8 26 26 N 8 13 29.60 1002 10 16 0.00 0.00
11:56 pm 23:56 Mostly Cloudy 70 21.1 31 -0.6 23 23 Calm 29.61 1003 10 16 0.00 0.00

Powered by AerisWeather